[[{"header":{"parameterUnit":"m.s-1","parameterCategory":1,"la1":30.2991,"la2":30.254,"lo1":-89.0895,"lo2":-89.0444,"dy":0.0017,"dx":0.0017,"nx":28,"ny":28,"refTime":"2025-01-17T03:00:00:Z","depth":0,"parameterNumber":2,"parameterNumberName":"U-component_of_WINDS"},"data":[0,0,0,0,0,0,0,0,0,0,0,0,0,0,0,0,0,0,0,0,0,0,0,0,0,0,0,0,0,0,0,0,0,0,0,0,0,0,0,0,0,0,0,0,0,0,0,0,0,0,0,0,0,0,0,0,0,0,1.295,1.2951,0,1.2985,1.2985,1.2986,1.2983,1.2983,1.2982,1.2982,1.3017,1.3019,1.302,0,0,0,0,0,0,0,0,0,0,0,0,0,1.2884,1.2885,1.295,1.2951,1.2951,1.2985,1.2985,1.2986,1.2983,1.2983,1.2982,1.2982,1.3017,1.3018,1.302,0,0,0,0,0,0,0,0,0,0,0,0,0,1.2915,1.2885,1.295,1.2954,1.2955,1.2985,1.2985,1.2986,1.2983,1.2983,1.2982,1.2981,1.3016,1.3018,1.302,1.3049,0,0,1.3027,1.3028,0,0,0,0,0,0,0,0,1.2913,1.2917,1.2953,1.2954,1.2955,1.2979,1.2975,1.3007,1.2984,1.2973,1.2982,1.2981,1.3005,1.3008,1.3016,1.305,1.3052,1.3027,1.3028,1.3029,1.303,0,0,0,0,0,0,0,1.2911,1.2916,1.2964,1.2954,1.2955,1.2954,1.2958,1.2981,1.2993,1.2974,1.2973,1.2978,1.3005,1.3014,1.3017,1.3052,1.3027,1.3029,1.303,1.3031,1.3112,1.3113,0,0,0,0,0,0,1.2908,1.2914,1.2963,1.2965,1.2932,1.2956,1.296,1.2972,1.2992,1.2995,1.2978,1.2977,1.3011,1.3015,1.3018,1.3053,1.3029,1.3031,1.3032,1.3111,1.3112,1.3113,0,0,0,0,0,0,1.2906,1.2912,1.2962,1.294,1.2946,1.2958,1.2971,1.2973,1.2982,1.2996,1.2998,1.2985,1.3011,1.3015,1.3041,1.3054,1.3032,1.3034,1.311,1.3111,1.3113,1.3122,0,0,0,0,0,0,1.2904,1.2912,1.2922,1.294,1.2947,1.2984,1.2972,1.2974,1.2985,1.2985,1.3003,1.3005,1.301,1.3038,1.3043,1.3057,1.3036,1.3109,1.3111,1.3112,1.3121,1.3124,1.3126,0,0,0,0,0,1.2902,1.2924,1.2923,1.2929,1.2961,1.2984,1.2989,1.2994,1.2986,1.2997,1.3007,1.3005,1.3052,1.3041,1.3047,1.3061,1.3108,1.311,1.3112,1.312,1.3123,1.3126,0,0,0,0,0,0,1.2908,1.2926,1.2925,1.2953,1.2967,1.2984,1.2998,1.2998,1.3014,1.3013,1.3019,1.3023,1.3049,1.3058,1.3045,1.309,1.3079,1.3082,1.3083,1.3086,1.3089,1.3087,1.3038,0,0,0,0,0,1.2912,1.293,1.2945,1.2968,1.2975,1.2986,1.2996,1.2999,1.3014,1.302,1.3031,1.3045,1.3064,1.3076,1.3093,1.3122,1.3126,1.3135,1.3138,1.314,1.3143,1.3159,1.3163,1.3119,1.3119,1.3119,0,0,1.2922,1.2934,1.2945,1.297,1.2981,1.2999,1.2991,1.301,1.3024,1.3023,1.3048,1.3057,1.3073,1.3101,1.3114,1.3109,1.3156,1.3142,1.3144,1.3146,1.3161,1.3165,1.3169,1.3121,1.3121,1.312,0,0,1.2948,1.2959,1.298,1.2991,1.3009,1.3015,1.302,1.3037,1.3043,1.3068,1.3068,1.3084,1.3115,1.3127,1.3138,1.3169,1.3168,1.3175,1.3189,1.3205,1.3208,1.3211,1.3223,1.3227,1.3177,1.3177,1.3177,0,1.2958,1.2986,1.2991,1.3011,1.3022,1.3022,1.3043,1.3054,1.3076,1.3084,1.3078,1.3117,1.3128,1.3159,1.3167,1.3175,1.3181,1.3173,1.3207,1.321,1.3213,1.3224,1.3228,1.3178,1.3178,1.3178,1.3178,0,1.2997,1.3016,1.3031,1.3052,1.3065,1.3085,1.3094,1.3106,1.3108,1.3115,1.3141,1.3155,1.3175,1.3183,1.3185,1.3214,1.321,1.3206,1.3195,1.3218,1.3228,1.3233,1.3179,1.3179,1.3179,1.3178,0,0,1.3028,1.3052,1.3057,1.3067,1.3086,1.3101,1.3122,1.3141,1.3152,1.3167,1.3185,1.3211,1.3207,1.3219,1.3222,1.3236,1.3261,1.323,1.3231,1.3235,1.3294,1.3297,1.3302,1.326,1.3261,1.3261,1.3292,0,1.3056,1.3093,1.3098,1.3131,1.3149,1.3149,1.3167,1.318,1.3188,1.3204,1.3213,1.3231,1.3225,1.3232,1.3245,1.3255,1.3272,1.3253,1.3277,1.3277,1.3272,1.3307,1.331,1.3339,1.3296,1.3297,1.3298,0,1.3095,1.3111,1.3145,1.3162,1.317,1.3186,1.3205,1.322,1.3236,1.324,1.3253,1.3255,1.3277,1.3265,1.3295,1.3282,1.3292,1.3298,1.3299,1.3302,1.3289,1.331,1.3348,1.3352,1.3304,1.3303,1.3303,0,1.3114,1.3145,1.3169,1.3177,1.3198,1.3209,1.3218,1.3233,1.3244,1.3261,1.3269,1.3287,1.3298,1.3312,1.3319,1.331,1.3349,1.3338,1.3353,1.3353,1.3361,1.336,1.3401,1.3368,1.3368,1.3368,1.3367,0,1.3146,1.3166,1.3178,1.3193,1.3216,1.3223,1.3246,1.3254,1.3268,1.3285,1.3286,1.3302,1.331,1.3327,1.3332,1.3356,1.3361,1.3365,1.3367,1.3365,1.3365,1.3372,1.337,1.3369,1.3368,1.3368,1.3368,0,1.3171,1.318,1.3206,1.3223,1.3228,1.3245,1.3259,1.3274,1.3281,1.3303,1.3308,1.332,1.334,1.3348,1.3373,1.3377,1.3404,1.3404,1.3399,1.3399,1.3414,1.3412,1.346,1.3467,1.343,1.343,1.343,0,1.3191,1.3207,1.3226,1.3237,1.3246,1.3264,1.3276,1.3283,1.3296,1.3315,1.3327,1.3347,1.3364,1.3396,1.3407,1.3426,1.3426,1.3441,1.3429,1.3427,1.3426,1.3425,1.3427,1.3444,1.3444,1.3444,1.3445,0,1.3224,1.3228,1.3245,1.3264,1.3278,1.3293,1.3308,1.3317,1.3326,1.334,1.3361,1.3374,1.3399,1.3419,1.3439,1.3448,1.3448,1.3449,1.3453,1.3452,1.3448,1.345,1.3405,1.3447,1.3447,1.3447,1.3447,1.3447,1.3248,1.3262,1.3277,1.3297,1.3308,1.3322,1.3337,1.3346,1.3364,1.3385,1.3388,1.341,1.3425,1.3452,1.3462,1.3479,1.3475,1.3482,1.3483,1.3485,1.3486,1.3446,1.3483,1.3483,1.3483,1.3483,1.3483,0,1.3281,1.3291,1.3309,1.333,1.3345,1.3344,1.336,1.3373,1.3392,1.3407,1.3423,1.3447,1.3466,1.3478,1.3498,1.351,1.351,1.3514,1.3514,1.3516,1.3488,1.3482,1.3514,1.3514,1.3514,1.3514,1.3514,1.3514,1.3301,1.3325,1.333,1.3361,1.3371,1.3392,1.3402,1.3415,1.3426,1.3453,1.3469,1.3477,1.3491,1.3511,1.3529,1.3532,1.3539,1.3544,1.3547,1.3521,1.3518,1.3515,1.3509,1.3546,1.3546,1.3573,1.3573,1.3573]},{"header":{"parameterUnit":"m.s-1","parameterCategory":1,"la1":30.2991,"la2":30.254,"lo1":-89.0895,"lo2":-89.0444,"dy":0.0017,"dx":0.0017,"nx":28,"ny":28,"refTime":"2025-01-17T03:00:00:Z","depth":0,"parameterNumber":3,"parameterNumberName":"V-component_of_WINDS"},"data":[0,0,0,0,0,0,0,0,0,0,0,0,0,0,0,0,0,0,0,0,0,0,0,0,0,0,0,0,0,0,0,0,0,0,0,0,0,0,0,0,0,0,0,0,0,0,0,0,0,0,0,0,0,0,0,0,0,0,-0.0286,-0.0285,0,-0.0233,-0.0233,-0.0232,-0.0296,-0.0298,-0.0301,-0.0303,-0.0247,-0.0244,-0.024,0,0,0,0,0,0,0,0,0,0,0,0,0,-0.0441,-0.0438,-0.0286,-0.0285,-0.0284,-0.0233,-0.0233,-0.0232,-0.0295,-0.0298,-0.0301,-0.0304,-0.0249,-0.0244,-0.024,0,0,0,0,0,0,0,0,0,0,0,0,0,-0.038,-0.0437,-0.0286,-0.031,-0.0312,-0.0234,-0.0233,-0.0232,-0.0295,-0.0298,-0.0302,-0.0305,-0.025,-0.0245,-0.0239,-0.0135,0,0,-0.0223,-0.022,0,0,0,0,0,0,0,0,-0.0383,-0.0374,-0.0307,-0.0308,-0.031,-0.0275,-0.0267,-0.0199,-0.0294,-0.0301,-0.0303,-0.0307,-0.0254,-0.0248,-0.023,-0.0132,-0.013,-0.0222,-0.0219,-0.0216,-0.0215,0,0,0,0,0,0,0,-0.0387,-0.0377,-0.0265,-0.0306,-0.0308,-0.0324,-0.0319,-0.0255,-0.0258,-0.0301,-0.0305,-0.0298,-0.0255,-0.0236,-0.023,-0.0129,-0.0222,-0.0217,-0.0214,-0.0212,0.0054,0.0058,0,0,0,0,0,0,-0.0389,-0.038,-0.0267,-0.0263,-0.0356,-0.0318,-0.0313,-0.0282,-0.0259,-0.0259,-0.0295,-0.0301,-0.0243,-0.0236,-0.0228,-0.0106,-0.0216,-0.0211,-0.0208,0.005,0.0055,0.0059,0,0,0,0,0,0,-0.0392,-0.0378,-0.0269,-0.0323,-0.031,-0.0312,-0.0277,-0.028,-0.026,-0.0255,-0.0256,-0.0275,-0.0246,-0.0236,-0.0158,-0.0105,-0.0209,-0.0204,0.0046,0.0052,0.0057,0.0139,0,0,0,0,0,0,-0.0396,-0.0379,-0.0339,-0.0321,-0.0307,-0.0199,-0.0274,-0.0276,-0.0251,-0.0258,-0.0236,-0.0236,-0.0248,-0.0166,-0.0153,-0.01,-0.0199,0.0041,0.0049,0.0055,0.0132,0.0147,0.016,0,0,0,0,0,-0.0401,-0.0316,-0.0336,-0.0322,-0.0257,-0.0196,-0.0188,-0.0204,-0.0246,-0.0206,-0.0203,-0.0236,-0.0113,-0.0158,-0.0143,-0.0087,0.0038,0.0046,0.0055,0.0126,0.0144,0.016,0,0,0,0,0,0,-0.0325,-0.0314,-0.0336,-0.0243,-0.022,-0.0207,-0.0157,-0.0183,-0.0148,-0.0156,-0.0177,-0.0172,-0.009,-0.0081,-0.0131,0.0013,-0.0045,-0.0033,0.0004,0.0022,0.0036,0.0032,-0.0195,0,0,0,0,0,-0.0298,-0.025,-0.0243,-0.0161,-0.0149,-0.0155,-0.0129,-0.0144,-0.0121,-0.0111,-0.0103,-0.0079,-0.0036,-0.0006,0.0035,0.0133,0.0135,0.0178,0.0192,0.0204,0.0214,0.0263,0.0282,0.0087,0.0087,0.0087,0,0,-0.024,-0.0228,-0.0196,-0.0146,-0.013,-0.0081,-0.0146,-0.009,-0.0054,-0.0103,-0.003,-0.0023,0.0002,0.0089,0.0128,0.0099,0.0268,0.0215,0.0224,0.0228,0.0274,0.0292,0.0309,0.0093,0.0091,0.0091,0,0,-0.0111,-0.0096,-0.0028,-0.0012,0.0012,0.0007,0.0024,0.004,0.0042,0.0115,0.0078,0.0121,0.0197,0.0215,0.0235,0.0367,0.0337,0.0381,0.0455,0.0503,0.0519,0.0532,0.0577,0.0594,0.0392,0.0392,0.0392,0,-0.0042,0.0031,0.0011,0.0068,0.009,0.0047,0.0114,0.0132,0.0168,0.0184,0.0152,0.0244,0.0258,0.0347,0.0379,0.0397,0.0414,0.0379,0.0518,0.0531,0.0544,0.0586,0.0604,0.0397,0.0396,0.0396,0.0395,0,0.0113,0.0164,0.0216,0.025,0.0278,0.0341,0.0329,0.036,0.0342,0.034,0.0413,0.0427,0.0469,0.0489,0.0473,0.0575,0.0556,0.0521,0.0462,0.0568,0.0607,0.0623,0.0404,0.0402,0.0401,0.0399,0,0,0.0294,0.0313,0.0333,0.0346,0.0368,0.0406,0.0466,0.0505,0.0531,0.0557,0.0605,0.0669,0.0636,0.0657,0.0643,0.0686,0.0786,0.0645,0.0645,0.0669,0.0897,0.0922,0.0941,0.0767,0.077,0.0772,0.0894,0,0.0422,0.0524,0.0506,0.0605,0.065,0.0607,0.0659,0.0677,0.0676,0.0714,0.0713,0.0758,0.0712,0.0724,0.0765,0.0766,0.0831,0.0757,0.081,0.0812,0.0804,0.0962,0.099,0.1104,0.0909,0.0912,0.0914,0,0.0586,0.0615,0.0718,0.0729,0.0747,0.0794,0.0826,0.0863,0.0883,0.0879,0.0901,0.0878,0.0935,0.0876,0.0954,0.0904,0.0924,0.0928,0.0932,0.0935,0.0869,0.0968,0.1141,0.1157,0.0939,0.0937,0.0935,0,0.0704,0.077,0.0839,0.0852,0.0868,0.0901,0.0909,0.0924,0.0948,0.0976,0.099,0.1026,0.1045,0.1073,0.1059,0.1017,0.1139,0.1079,0.1136,0.1136,0.1163,0.1161,0.1339,0.1179,0.1179,0.1179,0.1178,0,0.0848,0.0913,0.0892,0.0935,0.1004,0.0982,0.1052,0.1055,0.1068,0.1109,0.1076,0.1116,0.1095,0.1133,0.1122,0.1187,0.1197,0.1194,0.119,0.1197,0.1197,0.1209,0.12,0.1183,0.1182,0.1181,0.118,0,0.0993,0.0982,0.1054,0.1061,0.1065,0.1115,0.1121,0.116,0.1156,0.1209,0.122,0.1213,0.1255,0.1244,0.1291,0.1283,0.1364,0.1351,0.1357,0.1354,0.141,0.1404,0.1601,0.1625,0.1452,0.1453,0.1455,0,0.1085,0.1133,0.1144,0.1169,0.1179,0.122,0.1242,0.1222,0.1247,0.127,0.1306,0.1345,0.1375,0.1444,0.1443,0.1478,0.1464,0.1531,0.147,0.1473,0.1463,0.1459,0.1463,0.1543,0.1545,0.1547,0.1548,0,0.1249,0.124,0.1274,0.1305,0.1333,0.1357,0.1378,0.14,0.138,0.141,0.1452,0.1475,0.1521,0.1559,0.159,0.1598,0.1569,0.1567,0.1582,0.1588,0.1588,0.1586,0.1389,0.1563,0.1561,0.156,0.1559,0.1559,0.1369,0.1408,0.1421,0.1459,0.1472,0.1491,0.1527,0.1525,0.156,0.1594,0.158,0.1628,0.1642,0.1681,0.1692,0.1729,0.1703,0.1725,0.173,0.1736,0.1741,0.1583,0.1735,0.1734,0.1734,0.1733,0.1733,0,0.1529,0.1534,0.1569,0.1598,0.1627,0.1596,0.1617,0.1643,0.1685,0.1701,0.173,0.1776,0.1813,0.1813,0.1847,0.1876,0.1863,0.1885,0.1882,0.1883,0.1764,0.1746,0.1894,0.1894,0.1894,0.1894,0.1894,0.1894,0.1616,0.1679,0.1671,0.174,0.1745,0.179,0.1804,0.1821,0.1832,0.1886,0.1915,0.1914,0.1923,0.1957,0.1988,0.1987,0.2,0.2027,0.2021,0.1909,0.1892,0.1877,0.1861,0.203,0.203,0.2137,0.2138,0.2139]}]]